Regional Weather Roundup
Issued by NWS Kansas City/Pleasant Hill, MO

Home | Current Version | Previous Version | Text Only | Print | Product List | Glossary On
Versions: 1 2 3 4 5 6 7 8 9 10 11 12 13 14 15 16 17 18 19 20 21 22 23 24 25 26 27 28
000
ASUS43 KEAX 220010
RWREAX

WEATHER ROUNDUP FOR EASTERN KANSAS AND NORTHWEST MISSOURI
NATIONAL WEATHER SERVICE KANSAS CITY/PLEASANT HILL MO
600 PM CST SUN JAN 21 2018

KSZ040-057-103>105-MOZ028-029-037-043-220100-
...KANSAS CITY METROPOLITAN AREA...

CITY           SKY/WX    TMP DP  RH WIND       PRES   REMARKS
K.C. INTL      MOCLDY    57  49  74 SE3       29.63S
6HR MIN TEMP:  56; 6HR MAX TEMP:  64;

K.C. DOWNTOWN  CLEAR     62  49  62 SE5       29.62F
6HR MIN TEMP:  57; 6HR MAX TEMP:  66;

LEES SUMMIT    CLEAR     60  51  72 SE5       29.63F
6HR MIN TEMP:  56; 6HR MAX TEMP:  66;

OLATHE - IXD   CLOUDY    60  51  72 S7        29.63S
6HR MIN TEMP:  58; 6HR MAX TEMP:  65;

OLATHE - OJC   MOCLDY    59  51  75 S7        29.63S
6HR MIN TEMP:  58; 6HR MAX TEMP:  64;

LAWRENCE       CLOUDY    56  49  77 E6        29.61F

$$

MOZ001>008-011>017-020>025-030>033-038>040-044>046-053-054-220100-
...NORTHERN AND CENTRAL MISSOURI...

CITY           SKY/WX    TMP DP  RH WIND       PRES   REMARKS
ST. JOSEPH     MOCLDY    52  49  89 E3        29.65R
6HR MIN TEMP:  52; 6HR MAX TEMP:  60;

MOSBY          CLEAR     55  50  82 CALM      29.64S
WARRENSBURG    PTCLDY    59  48  67 SE5       29.67F
WHITEMAN AFB   CLOUDY    61  50  67 SE6       29.62F
6HR MIN TEMP:  61; 6HR MAX TEMP:  68;

CLINTON        MOCLDY    61  50  67 SE8       29.68F
SEDALIA        CLOUDY    61  51  70 SE8       29.69F
6HR MIN TEMP:  61; 6HR MAX TEMP:  71;

WARSAW         NOT AVBL
CHILLICOTHE      N/A     54  49  83 E6        29.68F
6HR MIN TEMP:  53; 6HR MAX TEMP:  58;

KIRKSVILLE     CLOUDY    52  51  97 E6        29.74F
6HR MIN TEMP:  52; 6HR MAX TEMP:  58;


$$

MOZ041-047>049-056>058-063>065-088>090-097-220100-
...EASTERN AND SOUTHERN MISSOURI...

CITY           SKY/WX    TMP DP  RH WIND       PRES   REMARKS
ST. LOUIS INTL NOT AVBL
SPIRIT OF STL  CLOUDY    62  55  77 S7G16     29.82R
COLUMBIA       CLOUDY    63  54  72 S12       29.74S
JEFFERSON CITY CLOUDY    66  52  60 SE9       29.74S
ROLLA          CLOUDY    61  54  77 S14G22    29.79F
OSAGE BEACH    CLOUDY    64  54  69 SE10      29.75F
SPRINGFIELD    CLOUDY    63  56  78 SE20      29.72F
BRANSON        MOCLDY    61  55  82 SE13G25   29.78F
JOPLIN         LGT RAIN  61  59  93 S14       29.67F
WEST PLAINS    CLOUDY    60  55  83 S13G22    29.84F

$$

IAZ060-094-KSZ022-034>040-054-083-096-NEZ052-066-093-220100-
...KANSAS...SOUTHEAST NEBRASKA AND IOWA...

CITY           SKY/WX    TMP DP  RH WIND       PRES   REMARKS
TOPEKA         CLOUDY    57  51  80 E5        29.60F
6HR MIN TEMP:  57; 6HR MAX TEMP:  64;

MANHATTAN      MOCLDY    55  43  63 NW5       29.59R
EMPORIA        CLEAR     53  47  79 S6        29.59S
CHANUTE        PTCLDY    65  53  65 S15       29.61F
WICHITA        PTCLDY    53  38  56 W9        29.60R
OMAHA          CLOUDY    39  38  96 N13       29.73R FOG     WCI  31
LINCOLN        LGT RAIN  38  37  97 N14       29.72R VSB 1   WCI  30
FALLS CITY     CLOUDY    52  45  77 E6        29.62F
LAMONI         PTCLDY    49  47  93 E6        29.69F
DES MOINES     FOG       41  40  96 NE8       29.76S VSB 1/8

$$





USA.gov is the U.S. government's official web portal to all federal, state and local government web resources and services.